This is the latest recevied weather packets stored in our database for station/object N3MFL. If no packets are shown the sender has not sent any weather packets the latest 10 day(s).
| Time | Temp. | Humidity | Pressure | Rain* | Wind** | Luminosity | Snow |
|---|---|---|---|---|---|---|---|
| 1777765016 | 10° C | 86% | 1011.4 hPa | 0 mm | - | 3 W/m² | - |
| 1777764409 | 10° C | 86% | 1011.3 hPa | 0 mm | - | 4 W/m² | - |
| 1777764107 | 10° C | 86% | 1011.5 hPa | 0 mm | - | 4 W/m² | - |
| 1777763803 | 10° C | 86% | 1011.4 hPa | 0 mm | - | 5 W/m² | - |
| 1777763200 | 10° C | 85% | 1011.4 hPa | 0 mm | - | 9 W/m² | - |
| 1777762291 | 10° C | 85% | 1011.6 hPa | 0 mm | - | 10 W/m² | - |
| 1777761381 | 10.56° C | 84% | 1011.4 hPa | 0 mm | - | 10 W/m² | - |
| 1777761079 | 10.56° C | 85% | 1011.3 hPa | 0 mm | - | 10 W/m² | - |
| 1777760776 | 10.56° C | 84% | 1011.2 hPa | 0 mm | - | 13 W/m² | - |
| 1777760472 | 10.56° C | 84% | 1011.1 hPa | 0 mm | - | 14 W/m² | - |
| 1777760168 | 10.56° C | 84% | 1011.2 hPa | 0 mm | - | 14 W/m² | - |
| 1777759866 | 10.56° C | 84% | 1011.2 hPa | 0 mm | - | 21 W/m² | - |
| 1777759561 | 10.56° C | 84% | 1011.3 hPa | 0 mm | - | 24 W/m² | - |
| 1777759258 | 10.56° C | 84% | 1011.3 hPa | 0 mm | - | 24 W/m² | - |
| 1777758955 | 10.56° C | 84% | 1011.4 hPa | 0 mm | - | 26 W/m² | - |
| 1777758652 | 10.56° C | 83% | 1011.1 hPa | 0 mm | - | 32 W/m² | - |
| 1777758047 | 10.56° C | 83% | 1011 hPa | 0 mm | - | 39 W/m² | - |
| 1777757743 | 10.56° C | 83% | 1011.3 hPa | 0 mm | - | 35 W/m² | - |
| 1777757441 | 10.56° C | 82% | 1011.3 hPa | 0 mm | - | 33 W/m² | - |
| 1777757140 | 10.56° C | 82% | 1011.3 hPa | 0 mm | - | 39 W/m² | - |
| 1777756837 | 10.56° C | 82% | 1011.3 hPa | 0 mm | - | 70 W/m² | - |
| 1777756532 | 10.56° C | 82% | 1011.2 hPa | 0 mm | - | 54 W/m² | - |
| 1777756230 | 10.56° C | 81% | 1011.4 hPa | 0 mm | - | 38 W/m² | - |
| 1777755927 | 10.56° C | 82% | 1011.1 hPa | 0 mm | - | 35 W/m² | - |
| 1777755619 | 10.56° C | 81% | 1011.2 hPa | 0 mm | - | 42 W/m² | - |
* Rain latest hour (hover to see other rain measurements)
** Current wind speed in m/s (hover to see current wind gust speed)